Minot, ND

6:29 AM CST on December 11, 2016 (GMT -0600)
Minot International

Weather History for KMOT - June, 2013

Change the Weather History Date:

Monday, June 17, 2013

  Actual Average Record
Temperature  
Mean Temperature 63 °F 64 °F  
Max Temperature 71 °F 76 °F 105 °F (1931)
Min Temperature 54 °F 53 °F 33 °F (1915)
Degree Days  
Heating Degree Days 2    
Cooling Degree Days 0 2  
Month to date cooling degree days 3 30  
Year to date cooling degree days 13 46  
Since 1 June cooling degree days 3 30  
Growing Degree Days 12 (Base 50)    
Moisture  
Dew Point 53 °F    
Average Humidity 70    
Maximum Humidity 87    
Minimum Humidity 53    
Precipitation  
Precipitation 0.00 in 0.12 in 3.75 in (2010)
Month to date precipitation 3.02 2.05  
Year to date precipitation 11.39 7.44  
Sea Level Pressure  
Sea Level Pressure 30.06 in    
Wind  
Wind Speed 7 mph (NNW)    
Max Wind Speed 14 mph    
Max Gust Speed 18 mph    
Visibility 10 miles    
Events      
T = Trace of Precipitation, MM = Missing Value Source: NWS Daily Summary

Daily Weather History Graph

Daily Weather History Graph

Search for Another Location

Airport or City:

Trip Planner

Search our weather history database for the weather conditions in past years. The results will help you decide how hot, cold, wet, or windy it might be!

Date:

Astronomy

Jun. 17, 2013 Rise Set
Actual Time 5:43 AM CDT 9:48 PM CDT
Civil Twilight 5:02 AM CDT 10:30 PM CDT
Nautical Twilight 4:03 AM CDT 11:28 PM CDT
Astronomical Twilight 2:17 AM CDT 1:15 AM CDT
Moon 3:05 PM CDT (6/17) 1:47 AM CDT (6/17)
Length of Visible Light 17h 28m
Length of Day
16h 04m
First Quarter, 60% of the Moon is Illuminated
Jun 17
First Quarter
Jun 23
Full
Jun 29
Last Quarter
Jul 8
New
Jul 15
First Quarter

Hourly Weather History & Observations

Time (CDT) Temp. Dew Point Humidity Pressure Visibility Wind Dir Wind Speed Gust Speed Precip Events Conditions
12:54 AM 59.0 °F 55.0 °F 87% 29.97 in 10.0 mi NW 10.4 mph - N/A   Scattered Clouds
1:10 AM 60.8 °F 55.4 °F 82% 29.98 in 10.0 mi NW 10.4 mph - N/A   Mostly Cloudy
1:35 AM 60.8 °F 55.4 °F 82% 29.99 in 10.0 mi NW 12.7 mph - N/A   Overcast
1:54 AM 60.1 °F 55.0 °F 83% 29.99 in 10.0 mi NNW 10.4 mph - N/A   Overcast
2:02 AM 60.8 °F 55.4 °F 82% 29.99 in 10.0 mi NNW 11.5 mph - N/A   Overcast
2:54 AM 59.0 °F 55.0 °F 87% 30.01 in 10.0 mi NNW 11.5 mph - N/A   Overcast
3:03 AM 59.0 °F 55.4 °F 88% 30.01 in 10.0 mi NNW 10.4 mph - N/A   Overcast
3:35 AM 57.2 °F 53.6 °F 88% 30.01 in 10.0 mi NNW 12.7 mph - N/A   Overcast
3:54 AM 57.9 °F 54.0 °F 87% 30.01 in 10.0 mi NNW 11.5 mph - N/A   Overcast
4:54 AM 57.9 °F 54.0 °F 87% 30.03 in 10.0 mi NW 9.2 mph - N/A   Overcast
5:54 AM 57.0 °F 53.1 °F 87% 30.04 in 10.0 mi NW 10.4 mph - N/A   Overcast
6:09 AM 57.2 °F 53.6 °F 88% 30.05 in 10.0 mi NNW 8.1 mph - N/A   Overcast
6:29 AM 57.2 °F 53.6 °F 88% 30.05 in 10.0 mi NW 8.1 mph - N/A   Overcast
6:54 AM 57.0 °F 53.1 °F 87% 30.05 in 10.0 mi NNW 8.1 mph - N/A   Overcast
7:06 AM 57.2 °F 53.6 °F 88% 30.05 in 10.0 mi NNW 10.4 mph - N/A   Overcast
7:25 AM 57.2 °F 53.6 °F 88% 30.06 in 10.0 mi NNW 10.4 mph - N/A   Overcast
7:32 AM 57.2 °F 53.6 °F 88% 30.06 in 10.0 mi NNW 11.5 mph - N/A   Overcast
7:54 AM 57.9 °F 53.1 °F 84% 30.07 in 10.0 mi NNW 9.2 mph - N/A   Overcast
8:25 AM 57.2 °F 53.6 °F 88% 30.08 in 10.0 mi NNW 9.2 mph - N/A   Overcast
8:54 AM 59.0 °F 53.1 °F 81% 30.09 in 10.0 mi NNW 9.2 mph - N/A   Overcast
9:01 AM 59.0 °F 53.6 °F 82% 30.09 in 10.0 mi NW 10.4 mph - N/A   Overcast
9:20 AM 60.8 °F 53.6 °F 77% 30.09 in 10.0 mi NNW 8.1 mph - N/A   Overcast
9:54 AM 61.0 °F 53.1 °F 75% 30.09 in 10.0 mi NNW 6.9 mph - N/A   Overcast
10:12 AM 60.8 °F 53.6 °F 77% 30.09 in 10.0 mi NNW 5.8 mph - N/A   Overcast
10:54 AM 61.0 °F 53.1 °F 75% 30.10 in 10.0 mi WNW 9.2 mph - N/A   Overcast
11:54 AM 63.0 °F 52.0 °F 67% 30.10 in 10.0 mi NNW 8.1 mph - N/A   Overcast
12:21 PM 62.6 °F 51.8 °F 68% 30.11 in 10.0 mi WNW 8.1 mph - N/A   Overcast
12:54 PM 64.9 °F 52.0 °F 63% 30.11 in 10.0 mi NNW 9.2 mph - N/A   Overcast
1:54 PM 64.9 °F 53.1 °F 65% 30.10 in 10.0 mi North 8.1 mph - N/A   Overcast
2:54 PM 66.9 °F 50.0 °F 54% 30.10 in 10.0 mi NNW 4.6 mph - N/A   Mostly Cloudy
3:54 PM 68.0 °F 52.0 °F 56% 30.09 in 10.0 mi Calm Calm - N/A   Mostly Cloudy
4:54 PM 68.0 °F 52.0 °F 56% 30.09 in 10.0 mi NE 6.9 mph - N/A   Overcast
5:54 PM 70.0 °F 51.1 °F 51% 30.08 in 10.0 mi NNW 6.9 mph - N/A   Partly Cloudy
6:54 PM 68.0 °F 52.0 °F 56% 30.08 in 10.0 mi North 6.9 mph - N/A   Scattered Clouds
7:54 PM 66.0 °F 51.1 °F 59% 30.07 in 10.0 mi North 5.8 mph - N/A   Partly Cloudy
8:54 PM 63.0 °F 52.0 °F 67% 30.07 in 10.0 mi North 5.8 mph - N/A   Clear
9:54 PM 59.0 °F 52.0 °F 78% 30.09 in 10.0 mi Calm Calm - N/A   Clear
10:54 PM 55.9 °F 51.1 °F 84% 30.10 in 10.0 mi Calm Calm - N/A   Clear
11:54 PM 57.0 °F 51.1 °F 81% 30.10 in 10.0 mi Calm Calm - N/A   Clear